Preview of NWS' New Version of Forecast
This preview is not operational and should not be used for support decisions.

Regional Weather Roundup (RWR)

Issued by National Weather Service (NWS)

                            
000
ASUS43 KMKX 251311
RWRWI 

WISCONSIN REGIONAL WEATHER ROUNDUP
NATIONAL WEATHER SERVICE MILWAUKEE/SULLIVAN WI
800 AM CDT SUN AUG 25 2019

NOTE: "FAIR" INDICATES FEW OR NO CLOUDS BELOW 12,000 FEET WITH NO
SIGNIFICANT WEATHER AND/OR OBSTRUCTIONS TO VISIBILITY.

WIZ001-002-006>008-014>016-023>028-251400-
NORTHWEST WISCONSIN
  
CITY           SKY/WX    TMP DP  RH WIND       PRES   REMARKS
SUPERIOR ARPT  CLOUDY    62  56  79 S8        30.09S                  
ASHLAND        FAIR      60  51  72 S8        30.14S                  
HAYWARD        FAIR      59  52  77 SE12G21   30.13S                  
SIREN          CLOUDY    62  53  73 SE6       30.10S                  
CUMBERLAND     FAIR      55  50  82 SE8       30.12R                  
RICE LAKE      FAIR      59  41  51 SE10      30.13S                  
CHETEK         FAIR      57  53  88 SE9       30.12S                  
LADYSMITH      FAIR      56  54  91 SE6       30.16F                  
EAU CLAIRE     FAIR      57  52  83 SE8       30.11F                  
MENOMONIE      FAIR      55  51  86 E8        30.11S                  
NEW RICHMOND   CLOUDY    59  52  77 SE7       30.09S                  
OSCEOLA        CLOUDY    61  55  79 SE9       30.11F                  
$$
 
WIZ003>005-009-010-017-018-251400-
NORTH CENTRAL WISCONSIN
  
CITY           SKY/WX    TMP DP  RH WIND       PRES   REMARKS
MANITOWISH WTR FAIR      55  55 100 SE6       30.18F                  
ARBOR VITAE    FAIR      57  55  90 SE6       30.19F                  
WOODRUFF       FAIR      57  55  90 SE6       30.19F                  
RHINELANDER    FAIR      56  53  90 SE6       30.20F                  
EAGLE RIVER    FAIR      57  56  95 S3        30.20F                  
LAND O LAKES   FAIR      56  56 100 SE5       30.22F                  
PHILLIPS       FAIR      56  54  94 SE7       30.16F                  
TOMAHAWK       FAIR      55  54  97 SE3       30.18F                  
MEDFORD        PTSUNNY   54  53  95 SE5       30.16F                  
MERRILL        FAIR      57  56  97 SE7       30.19F                  
$$
 
WIZ029-030-035-036-043>047-251400-
CENTRAL WISCONSIN
  
CITY           SKY/WX    TMP DP  RH WIND       PRES   REMARKS
WAUSAU         FAIR      57  54  89 SE7       30.17F                  
MOSINEE        MOSUNNY   55  55 100 E7        30.19S                  
MARSHFIELD     PTSUNNY   58  55  90 SE7       30.16S                  
STEVENS POINT  PTSUNNY   57  57 100 E5        30.18F                  
WAUPACA        CLOUDY    59  58  98 CALM      30.19F                  
WAUTOMA        FAIR      58  56  93 NE3       30.18F                  
WISC RAPIDS    FAIR      60  56  86 E8        30.17S                  
CAMP DOUGLAS   PTSUNNY   54  54 100 SE9       30.15F                  
$$
 
WIZ011>013-019>022-031-037>040-048>050-251400-
NORTHEAST WISCONSIN
  
CITY           SKY/WX    TMP DP  RH WIND       PRES   REMARKS
ANTIGO         FAIR      57  56  99 SE8       30.21S                  
SHAWANO        PTSUNNY   59  57  94 NE5       30.20S                  
OCONTO         FAIR      59  56  89 CALM      30.21S                  
STURGEON BAY   FAIR      65  60  84 SE8       30.23S                  
GREEN BAY      FAIR      64  59  83 SE5       30.21R                  
MANITOWOC      PTSUNNY   68  57  68 SE10      30.21S                  
APPLETON       PTSUNNY   63  61  94 CALM      30.19R                  
CLINTONVILLE   FAIR      57  55  92 CALM      30.20S                  
OSHKOSH        CLOUDY    65  59  81 S6        30.18S                  
$$
 
WIZ032>034-041-042-053>061-251400-
SOUTHWEST WISCONSIN
  
CITY           SKY/WX    TMP DP  RH WIND       PRES   REMARKS
LA CROSSE      PTSUNNY   62  54  74 E7        30.11F                  
SPARTA         FAIR      53  52  96 E3        30.14F                  
VIROQUA        FAIR      55  55 100 E7        30.13F                  
BOSCOBEL       FAIR      58  54  86 NE6       30.13F                  
PRAIRIE DU CHI FAIR      60  54  81 CALM      30.10F                  
PLATTEVILLE    FAIR      57  57 100 E7        30.12F                  
$$

WIZ056-057-062-063-064-067-068-251400-
SOUTH CENTRAL WISCONSIN
  
CITY           SKY/WX    TMP DP  RH WIND       PRES   REMARKS
REEDSBURG      FAIR      57  57 100 E3        30.14F                  
BARABOO/DELLS  CLOUDY    56  54  93 E5        30.15F                  
LONE ROCK      PTSUNNY   57  55  93 CALM      30.14F                  
MINERAL POINT  PTSUNNY   61  59  94 E5        30.13F                  
MADISON        PTSUNNY   59  56  89 NE3       30.16S                  
MIDDLETON      CLOUDY    59  56  88 CALM      30.16F                  
WATERTOWN      FAIR      60  60 100 E5        30.17S                  
MONROE         CLOUDY    58  55  88 E5        30.14F                  
JANESVILLE     PTSUNNY   59  59 100 CALM      30.15F                  
$$
 
WIZ051-052-058>065-066-070>072-251400-
SOUTHEAST WISCONSIN
  
CITY           SKY/WX    TMP DP  RH WIND       PRES   REMARKS
MILWAUKEE      PTSUNNY   69  58  67 SE10      30.18S                  
WAUKESHA       SUNNY     57  55  94 CALM      30.19S                  
MILWAUKEE/TIMM PTSUNNY   63  55  77 CALM      30.20R                  
RACINE         FAIR      68  57  68 SE12      30.19S                  
KENOSHA        FAIR      68  61  78 E6        30.17S                  
FOND DU LAC    CLOUDY    64  59  83 SE3       30.19S                  
SHEBOYGAN      FAIR      67  57  70 SE5       30.20S                  
WEST BEND      FAIR      59  55  88 CALM      30.19F                  
JUNEAU         FAIR      60  57  90 CALM      30.19F                  
$$

LSZ147-162-251400-
LAKE SUPERIOR
  
STATION/POSITION TIME  TEMP    WIND        PRES    WAVE
                       AIR SEA DIR/SP/G            HT/PER
                 (UTC) (F)     (DEG/KT/KT) (MB)    (FT/S)
W MID LAKE BUOY  1250   64 64  180/ 17/ 19 1020.3R   4/ 5
DEVILS ISLAND    1200   63     170/ 12/ 17 1020.1F
SAXON HARBOR     1240   60     180/  5/  8 1020.3F
$$
 
LMZ867-665-643>646-251400-
LAKE MICHIGAN
  
STATION/POSITION TIME  TEMP    WIND        PRES    WAVE
                       AIR SEA DIR/SP/G            HT/PER
                 (UTC) (F)     (DEG/KT/KT) (MB)    (FT/S)
S GREEN BAY BUOY 1230   72 69  140/ 12/ 14 1022.9R
N MID LAKE BUOY  1250   65 69  170/ 12/ 14 1024.3R   2/ 4
NORTHPORT PIER   1300   67     140/  3/ 10 1023.4
KEWAUNEE LAKESHO 1224   68     170/ 13/ 15 1022.5
SHEBOYGAN LAKESH 1300   67     130/ 15/ 17 1022.6F
PORT WASHINGTON  1240   69     140/ 12/ 14 1023.0S
ATWATER BUOY     1230   68 68  150/ 12/ 16 1022.4R   4/ 5
S MID LAKE BUOY  1250   65 72  110/ 12/ 16 1022.7R   3/ 4
KENOSHA   LAKESH 1300   69     140/ 10/ 12 1021.3
$$

TC  - TEMPERATURE IN CELSIUS
VSB - VISIBILITY IN STATUTE MILES
WCI - WIND CHILL INDEX
HX  - HEAT INDEX